Location: Roland
(31.1349°N, 85.4372°W)
Time: 19:42:29
(UTC+00:00)

SR - Pass Details

Date: 18 April 2021
Orbit: 573 x 882 km, 66.7° (Epoch: 13 May)

Event Time Altitude Azimuth Distance (km) Brightness Sun altitude
Rises 00:23:39 0° 312° (NW) 3,391 ? -3.3°
Reaches altitude 10° 00:27:14 10° 290° (WNW) 2,398 ? -4.0°
Maximum altitude 00:30:12 15° 258° (WSW) 2,026 ? -4.7°
Drops below altitude 10° 00:33:03 10° 225° (SW) 2,285 ? -5.2°
Sets 00:36:21 0° 201° (SSW) 3,134 ? -5.9°
